Weather in Luchistoe

Russia / Republic of Crimea     44°44′14″N   34°24′00″E
temp.,
°C
wind,
m/s
gust,
m/s
humid.,
%
clouds,
%
prec.,
mm/h
press.,
hPa
HPBL,
m
20 june, sun
sun2000:00+20nnw33800 1.4 101013
03:00+20nw44800 1.5 100927
06:00+20nnw23820 0.0 100922
09:00+21ssw01830 0.0 1010205
12:00+22sse228032 0.1 1011571
15:00+23ne117514 0.9 1011465
18:00+23ene127614 0.4 1011387
21:00+20nne119116 0.5 101227
21 june, mon
mon2100:00+20nnw118784 0.0 101111
03:00+19nw22850 0.0 101115
06:00+19nnw33870 0.0 101133
09:00+22se12770 0.0 1011268
12:00+23s227416 0.0 1011525
15:00+24sse247212 0.0 1010796
18:00+23sw12733 0.0 1010297
21:00+22nnw2279100 0.0 101011
22 june, tue
tue2200:00+21n0181100 0.1 101011
03:00+20nnw228027 0.1 100911
06:00+20e118272 0.0 101011
09:00+21wsw01836 0.0 1010206
12:00+23sse22767 0.0 1010424
15:00+22sse228475 0.4 1011234
18:00+22e028739 0.7 1011307
21:00+20se229525 1.6 101229
23 june, wed
wed2300:00+19w119410 0.1 101211
03:00+20nw22915 0.1 101121
06:00+19ene119536 0.0 101216
09:00+21ese218756 0.0 1013235
12:00+22se2181100 0.0 1014409
15:00+22s128298 0.3 1014398
18:00+22ese138269 1.1 1014416
21:00+20nnw119011 1.3 101516
24 june, thu
thu2400:00+20nnw118811 0.0 101415
03:00+20nnw228763 0.0 101417
06:00+20n128376 0.0 101417
09:00+23se3471100 0.0 1014287
12:00+24sse127273 0.4 1014314
15:00+21nnw1285100 1.8 1015146
18:00+21sw018478 0.7 101548
21:00+19ene118856 1.6 101619